Time,TemperatureF,DewpointF,PressureIn,WindDirection,WindDirectionDegrees,WindSpeedMPH,WindSpeedGustMPH,Humidity,HourlyPrecipIn,Conditions,Clouds,dailyrainin,SoftwareType,DateUTC
2013-06-17 00:00:00,74.3,70.9,30.00,North,0,0.0,0.0,89,0.00,,,0.00,WUHU21623XXSP,2013-06-17 05:00:00,
2013-06-17 00:05:00,74.3,70.9,29.99,North,0,0.0,0.0,89,0.00,,,0.00,WUHU21623XXSP,2013-06-17 05:05:00,
2013-06-17 00:10:00,74.1,70.7,29.99,North,0,0.0,0.0,89,0.00,,,0.00,WUHU21623XXSP,2013-06-17 05:10:00,
2013-06-17 00:15:00,74.1,70.7,29.99,North,0,0.0,0.0,89,0.00,,,0.00,WUHU21623XXSP,2013-06-17 05:15:00,
2013-06-17 00:20:00,74.1,70.7,29.99,North,0,0.0,0.0,89,0.00,,,0.00,WUHU21623XXSP,2013-06-17 05:20:00,
2013-06-17 00:25:00,73.9,70.5,29.98,North,0,0.0,0.0,89,0.00,,,0.00,WUHU21623XXSP,2013-06-17 05:25:00,
2013-06-17 00:30:00,73.9,70.5,29.98,North,0,0.0,0.0,89,0.00,,,0.00,WUHU21623XXSP,2013-06-17 05:30:00,
2013-06-17 00:35:00,73.8,70.0,29.98,North,0,0.0,0.0,88,0.00,,,0.00,WUHU21623XXSP,2013-06-17 05:35:00,
2013-06-17 00:40:00,73.6,69.8,29.98,North,0,0.0,0.0,88,0.00,,,0.00,WUHU21623XXSP,2013-06-17 05:40:00,
2013-06-17 00:45:00,73.6,69.8,29.97,North,0,0.0,0.0,88,0.00,,,0.00,WUHU21623XXSP,2013-06-17 05:45:00,
2013-06-17 00:50:00,73.6,70.2,29.98,North,0,0.0,0.0,89,0.00,,,0.00,WUHU21623XXSP,2013-06-17 05:50:00,
2013-06-17 00:55:00,73.6,70.2,29.98,North,0,0.0,0.0,89,0.00,,,0.00,WUHU21623XXSP,2013-06-17 05:55:00,
2013-06-17 01:00:00,73.6,70.2,29.98,North,0,0.0,0.0,89,0.00,,,0.00,WUHU21623XXSP,2013-06-17 06:00:00,
2013-06-17 01:05:00,73.6,70.2,29.98,North,0,0.0,0.0,89,0.00,,,0.00,WUHU21623XXSP,2013-06-17 06:05:00,
2013-06-17 01:11:00,73.6,70.2,29.97,North,0,0.0,0.0,89,0.00,,,0.00,WUHU21623XXSP,2013-06-17 06:11:00,
2013-06-17 01:16:00,73.6,70.2,29.97,North,0,0.0,0.0,89,0.00,,,0.00,WUHU21623XXSP,2013-06-17 06:16:00,
2013-06-17 01:21:00,73.6,70.2,29.97,North,0,0.0,0.0,89,0.00,,,0.00,WUHU21623XXSP,2013-06-17 06:21:00,
2013-06-17 01:26:00,73.6,70.2,29.98,North,0,0.0,0.0,89,0.00,,,0.00,WUHU21623XXSP,2013-06-17 06:26:00,
2013-06-17 01:31:00,73.6,70.2,29.98,North,0,0.0,0.0,89,0.00,,,0.00,WUHU21623XXSP,2013-06-17 06:31:00,
2013-06-17 01:36:00,73.6,70.2,29.97,North,0,0.0,0.0,89,0.00,,,0.00,WUHU21623XXSP,2013-06-17 06:36:00,
2013-06-17 01:41:00,73.9,70.5,29.98,North,0,0.0,0.0,89,0.00,,,0.00,WUHU21623XXSP,2013-06-17 06:41:00,
2013-06-17 01:46:00,73.9,70.9,29.98,North,0,0.0,0.0,90,0.00,,,0.00,WUHU21623XXSP,2013-06-17 06:46:00,
2013-06-17 01:51:00,74.1,71.1,29.97,North,0,0.0,0.0,90,0.00,,,0.00,WUHU21623XXSP,2013-06-17 06:51:00,
2013-06-17 01:56:00,74.1,70.7,29.97,North,0,0.0,0.0,89,0.00,,,0.00,WUHU21623XXSP,2013-06-17 06:56:00,
2013-06-17 02:01:00,74.1,70.7,29.98,North,0,0.0,0.0,89,0.00,,,0.00,WUHU21623XXSP,2013-06-17 07:01:00,
2013-06-17 02:06:00,74.1,70.7,29.98,North,0,0.0,0.0,89,0.00,,,0.00,WUHU21623XXSP,2013-06-17 07:06:00,
2013-06-17 02:11:00,74.1,70.7,29.98,North,0,0.0,0.0,89,0.00,,,0.00,WUHU21623XXSP,2013-06-17 07:11:00,
2013-06-17 02:16:00,73.9,70.5,29.99,North,0,0.0,0.0,89,0.00,,,0.00,WUHU21623XXSP,2013-06-17 07:16:00,
2013-06-17 02:21:00,73.9,70.2,29.99,North,0,0.0,0.0,88,0.00,,,0.00,WUHU21623XXSP,2013-06-17 07:21:00,
2013-06-17 02:26:00,73.8,69.7,29.99,North,0,0.0,0.0,87,0.00,,,0.00,WUHU21623XXSP,2013-06-17 07:26:00,
2013-06-17 02:31:00,73.6,69.5,29.99,North,0,0.0,0.0,87,0.00,,,0.00,WUHU21623XXSP,2013-06-17 07:31:00,
2013-06-17 02:36:00,73.6,69.5,29.99,North,0,0.0,0.0,87,0.00,,,0.00,WUHU21623XXSP,2013-06-17 07:36:00,
2013-06-17 02:41:00,73.4,69.0,29.98,North,0,0.0,0.0,86,0.00,,,0.00,WUHU21623XXSP,2013-06-17 07:41:00,
2013-06-17 02:46:00,73.2,68.8,29.98,North,0,0.0,0.0,86,0.00,,,0.00,WUHU21623XXSP,2013-06-17 07:46:00,
2013-06-17 02:51:00,73.0,68.6,29.98,North,0,0.0,0.0,86,0.00,,,0.00,WUHU21623XXSP,2013-06-17 07:51:00,
2013-06-17 02:56:00,72.9,68.4,29.97,North,0,0.0,0.0,86,0.00,,,0.00,WUHU21623XXSP,2013-06-17 07:56:00,
2013-06-17 13:07:00,81.3,73.4,29.99,North,0,0.0,0.0,77,0.00,,,0.00,WUHU21623XXSP,2013-06-17 18:07:00,
2013-06-17 13:12:00,81.1,73.3,29.99,North,0,0.0,0.0,77,0.00,,,0.00,WUHU21623XXSP,2013-06-17 18:12:00,
2013-06-17 13:17:00,81.1,73.3,29.99,North,0,0.0,0.0,77,0.00,,,0.00,WUHU21623XXSP,2013-06-17 18:17:00,
2013-06-17 13:22:00,81.3,73.4,29.99,North,0,0.0,0.0,77,0.00,,,0.00,WUHU21623XXSP,2013-06-17 18:22:00,
2013-06-17 13:27:00,81.3,73.4,29.98,North,0,0.0,0.0,77,0.00,,,0.00,WUHU21623XXSP,2013-06-17 18:27:00,
2013-06-17 13:32:00,81.1,73.3,29.98,North,0,0.0,0.0,77,0.00,,,0.00,WUHU21623XXSP,2013-06-17 18:32:00,
2013-06-17 13:37:00,81.0,73.3,29.98,North,0,0.0,0.0,77,0.00,,,0.00,WUHU21623XXSP,2013-06-17 18:37:00,
2013-06-17 13:42:00,81.0,73.5,29.97,North,0,0.0,0.0,78,0.00,,,0.00,WUHU21623XXSP,2013-06-17 18:42:00,
2013-06-17 13:47:00,81.0,73.5,29.97,North,0,0.0,0.0,78,0.00,,,0.00,WUHU21623XXSP,2013-06-17 18:47:00,
2013-06-17 13:52:00,81.1,73.7,29.97,North,0,0.0,0.0,78,0.00,,,0.00,WUHU21623XXSP,2013-06-17 18:52:00,
2013-06-17 13:57:00,81.0,73.1,29.97,North,0,0.0,0.0,77,0.00,,,0.00,WUHU21623XXSP,2013-06-17 18:57:00,
2013-06-17 14:02:00,81.1,73.7,29.97,North,0,0.0,0.0,78,0.00,,,0.00,WUHU21623XXSP,2013-06-17 19:02:00,
2013-06-17 14:07:00,81.1,73.7,29.97,North,0,0.0,0.0,78,0.00,,,0.00,WUHU21623XXSP,2013-06-17 19:07:00,
2013-06-17 14:12:00,80.8,73.3,29.96,North,0,0.0,0.0,78,0.00,,,0.00,WUHU21623XXSP,2013-06-17 19:12:00,
2013-06-17 23:20:00,68.9,63.5,29.97,North,0,0.0,0.0,83,0.00,,,0.00,WUHU21623XXSP,2013-06-18 04:20:00,
2013-06-17 23:23:00,68.9,63.5,29.97,North,0,0.0,0.0,83,0.00,,,0.00,WUHU21623XXSP,2013-06-18 04:23:00,
2013-06-17 23:28:00,68.9,63.5,29.97,North,0,0.0,0.0,83,0.00,,,0.00,WUHU21623XXSP,2013-06-18 04:28:00,
2013-06-17 23:30:00,68.7,63.3,29.97,North,0,0.0,0.0,83,0.00,,,0.00,WUHU21623XXSP,2013-06-18 04:30:00,
2013-06-17 23:35:00,68.7,63.3,29.97,North,0,0.0,0.0,83,0.00,,,0.00,WUHU21623XXSP,2013-06-18 04:35:00,
2013-06-17 23:40:00,68.7,63.3,29.97,North,0,0.0,0.0,83,0.00,,,0.00,WUHU21623XXSP,2013-06-18 04:40:00,
2013-06-17 23:43:00,68.7,63.3,29.97,North,0,0.0,0.0,83,0.00,,,0.00,WUHU21623XXSP,2013-06-18 04:43:00,
2013-06-17 23:48:00,68.5,63.2,29.97,North,0,0.0,0.0,83,0.00,,,0.00,WUHU21623XXSP,2013-06-18 04:48:00,
2013-06-17 23:53:00,68.5,63.2,29.97,North,0,0.0,0.0,83,0.00,,,0.00,WUHU21623XXSP,2013-06-18 04:53:00,
2013-06-17 23:58:00,68.5,63.5,29.97,North,0,0.0,0.0,84,0.00,,,0.00,WUHU21623XXSP,2013-06-18 04:58:00,